Weather History for Lordsburg, NM

Change the Weather History Date:

Saturday, November 2, 2013

  Actual Average Record
Temperature  
Mean Temperature 55 °F -  
Max Temperature 69 °F 70 °F 69 °F (2013)
Min Temperature 41 °F 33 °F 41 °F (2013)
Degree Days  
Heating Degree Days 10    
Growing Degree Days 5 (Base 50)    
Moisture  
Dew Point 17 °F    
Average Humidity 24    
Maximum Humidity 39    
Minimum Humidity 12    
Precipitation  
Precipitation 0.00 in - - ()
Sea Level Pressure  
Sea Level Pressure 30.17 in    
Wind  
Wind Speed 11 mph (SSE)    
Max Wind Speed 24 mph    
Max Gust Speed 30 mph    
Visibility 10 miles    
Events      
Averages and records for this station are not official NWS values.
T = Trace of Precipitation, MM = Missing Value Source: NWS Daily Summary

Daily Weather History Graph

Daily Weather History Graph

Search for Another Location

Airport:

Trip Planner

Search our weather history database for the weather conditions in past years. The results will help you decide how hot, cold, wet, or windy it might be!

Date:

Astronomy

Nov. 02, 2013 Rise Set
Actual Time 7:32 AM MDT 6:23 PM MDT
Civil Twilight 7:07 AM MDT 6:48 PM MDT
Nautical Twilight 6:38 AM MDT 7:17 PM MDT
Astronomical Twilight 6:09 AM MDT 7:46 PM MDT
Moon 6:36 AM MDT (11/2) 5:55 PM MDT (11/2)
Length of Visible Light 11h 41m
Length of Day
10h 50m
Waning Crescent, 1% of the Moon is Illuminated
Nov 2
Waning Crescent
Nov 3
New
Nov 9
First Quarter
Nov 17
Full
Nov 25
Last Quarter

Hourly Weather History & Observations

Time (MDT) Temp. Windchill Dew Point Humidity Pressure Visibility Wind Dir Wind Speed Gust Speed Precip Events Conditions
12:15 AM 41.0 °F 35.8 °F 12.2 °F 31% 30.21 in 10.0 mi SSE 8.1 mph - N/A   Clear
12:35 AM 44.6 °F 40.7 °F 14.0 °F 29% 30.21 in 10.0 mi South 6.9 mph - N/A   Clear
12:55 AM 44.6 °F 40.2 °F 14.0 °F 29% 30.21 in 10.0 mi SSE 8.1 mph - N/A   Clear
1:15 AM 44.6 °F 40.7 °F 14.0 °F 29% 30.21 in 10.0 mi SSE 6.9 mph - N/A   Clear
1:35 AM 44.6 °F 39.7 °F 15.8 °F 31% 30.21 in 10.0 mi SSE 9.2 mph - N/A   Clear
1:55 AM 46.4 °F 41.9 °F 15.8 °F 29% 30.21 in 10.0 mi SSE 9.2 mph - N/A   Clear
2:15 AM 44.6 °F 40.2 °F 15.8 °F 31% 30.22 in 10.0 mi South 8.1 mph - N/A   Clear
2:35 AM 44.6 °F 40.2 °F 14.0 °F 29% 30.23 in 10.0 mi South 8.1 mph - N/A   Clear
2:55 AM 46.4 °F 41.9 °F 15.8 °F 29% 30.23 in 10.0 mi South 9.2 mph - N/A   Clear
3:15 AM 46.4 °F 41.9 °F 15.8 °F 29% 30.23 in 10.0 mi South 9.2 mph - N/A   Clear
3:35 AM 46.4 °F 41.9 °F 15.8 °F 29% 30.23 in 10.0 mi South 9.2 mph - N/A   Clear
3:55 AM 46.4 °F 42.4 °F 17.6 °F 32% 30.23 in 10.0 mi South 8.1 mph - N/A   Clear
4:15 AM 46.4 °F 41.9 °F 17.6 °F 32% 30.23 in 10.0 mi South 9.2 mph - N/A   Clear
4:35 AM 44.6 °F 39.7 °F 17.6 °F 34% 30.23 in 10.0 mi South 9.2 mph - N/A   Clear
4:55 AM 44.6 °F 39.7 °F 17.6 °F 34% 30.23 in 10.0 mi South 9.2 mph - N/A   Clear
5:15 AM 42.8 °F 37.5 °F 17.6 °F 36% 30.23 in 10.0 mi South 9.2 mph - N/A   Clear
5:35 AM 42.8 °F 38.0 °F 17.6 °F 36% 30.23 in 10.0 mi South 8.1 mph - N/A   Clear
5:55 AM 44.6 °F 39.7 °F 17.6 °F 34% 30.23 in 10.0 mi South 9.2 mph - N/A   Clear
6:15 AM 42.8 °F 37.5 °F 17.6 °F 36% 30.24 in 10.0 mi South 9.2 mph - N/A   Clear
6:35 AM 42.8 °F 37.5 °F 17.6 °F 36% 30.24 in 10.0 mi South 9.2 mph - N/A   Clear
6:55 AM 42.8 °F 38.0 °F 17.6 °F 36% 30.24 in 10.0 mi South 8.1 mph - N/A   Clear
7:15 AM 41.0 °F 35.2 °F 17.6 °F 39% 30.24 in 10.0 mi South 9.2 mph - N/A   Clear
7:35 AM 42.8 °F 37.0 °F 17.6 °F 36% 30.25 in 10.0 mi SSW 10.4 mph - N/A   Clear
7:55 AM 42.8 °F 37.0 °F 19.4 °F 39% 30.26 in 10.0 mi South 10.4 mph - N/A   Clear
8:15 AM 44.6 °F 39.7 °F 19.4 °F 37% 30.27 in 10.0 mi South 9.2 mph - N/A   Clear
8:35 AM 46.4 °F 42.4 °F 19.4 °F 34% 30.27 in 10.0 mi South 8.1 mph - N/A   Clear
8:55 AM 48.2 °F - 21.2 °F 34% 30.27 in 10.0 mi South 6.9 mph - N/A   Clear
9:15 AM 50.0 °F - 21.2 °F 32% 30.27 in 10.0 mi South 6.9 mph - N/A   Clear
9:35 AM 53.6 °F - 21.2 °F 28% 30.27 in 10.0 mi SSE 10.4 mph - N/A   Clear
9:55 AM 53.6 °F - 23.0 °F 30% 30.27 in 10.0 mi SSE 10.4 mph - N/A   Clear
11:15 AM 64.4 °F - 21.2 °F 19% 30.25 in 10.0 mi ESE 19.6 mph - N/A   Clear
11:35 AM 64.4 °F - 21.2 °F 19% 30.24 in 10.0 mi East 24.2 mph - N/A   Clear
11:55 AM 64.4 °F - 21.2 °F 19% 30.24 in 10.0 mi ESE 21.9 mph - N/A   Clear
12:15 PM 64.4 °F - 21.2 °F 19% 30.23 in 10.0 mi North - - N/A   Clear
12:35 PM 66.2 °F - 21.2 °F 18% 30.22 in 10.0 mi North - - N/A   Clear
12:55 PM 66.2 °F - 21.2 °F 18% 30.21 in 10.0 mi East 24.2 mph - N/A   Clear
1:15 PM 68.0 °F - 21.2 °F 17% 30.20 in 10.0 mi North - - N/A   Clear
1:35 PM 68.0 °F - 21.2 °F 17% 30.19 in 10.0 mi North - - N/A   Clear
1:55 PM 68.0 °F - 21.2 °F 17% 30.17 in 10.0 mi ESE 18.4 mph 29.9 mph N/A   Clear
2:15 PM 68.0 °F - 19.4 °F 16% 30.15 in 10.0 mi ESE 18.4 mph - N/A   Clear
2:35 PM 69.8 °F - 19.4 °F 15% 30.14 in 10.0 mi SE 18.4 mph - N/A   Clear
2:55 PM 69.8 °F - 19.4 °F 15% 30.13 in 10.0 mi East 23.0 mph - N/A   Clear
3:15 PM 69.8 °F - 19.4 °F 15% 30.12 in 10.0 mi ESE 20.7 mph 25.3 mph N/A   Clear
3:35 PM 69.8 °F - 17.6 °F 14% 30.11 in 10.0 mi ESE 20.7 mph 26.5 mph N/A   Clear
3:55 PM 69.8 °F - 17.6 °F 14% 30.11 in 10.0 mi ESE 17.3 mph 26.5 mph N/A   Clear
4:15 PM 69.8 °F - 17.6 °F 14% 30.10 in 10.0 mi ESE 21.9 mph 26.5 mph N/A   Clear
4:35 PM 69.8 °F - 17.6 °F 14% 30.08 in 10.0 mi ESE 17.3 mph 27.6 mph N/A   Clear
4:55 PM 69.8 °F - 17.6 °F 14% 30.09 in 10.0 mi ESE 17.3 mph 25.3 mph N/A   Clear
5:15 PM 68.0 °F - 15.8 °F 13% 30.08 in 10.0 mi ESE 15.0 mph 21.9 mph N/A   Clear
5:35 PM 68.0 °F - 14.0 °F 12% 30.08 in 10.0 mi East 17.3 mph - N/A   Clear
5:55 PM 66.2 °F - 14.0 °F 13% 30.08 in 10.0 mi ESE 13.8 mph - N/A   Clear
6:15 PM 64.4 °F - 14.0 °F 14% 30.08 in 10.0 mi ESE 11.5 mph - N/A   Clear
6:35 PM 62.6 °F - 14.0 °F 15% 30.08 in 10.0 mi ESE 11.5 mph - N/A   Clear
6:55 PM 60.8 °F - 14.0 °F 16% 30.08 in 10.0 mi ESE 9.2 mph - N/A   Clear
7:15 PM 59.0 °F - 14.0 °F 17% 30.08 in 10.0 mi ESE 9.2 mph - N/A   Clear
7:35 PM 57.2 °F - 14.0 °F 18% 30.08 in 10.0 mi SE 6.9 mph - N/A   Clear
7:55 PM 55.4 °F - 14.0 °F 20% 30.08 in 10.0 mi SE 8.1 mph - N/A   Clear
8:15 PM 53.6 °F - 14.0 °F 21% 30.08 in 10.0 mi SSE 6.9 mph - N/A   Clear
8:35 PM 53.6 °F - 14.0 °F 21% 30.08 in 10.0 mi SSE 6.9 mph - N/A   Clear
8:55 PM 55.4 °F - 14.0 °F 20% 30.08 in 10.0 mi SE 8.1 mph - N/A   Clear
9:15 PM 53.6 °F - 14.0 °F 21% 30.08 in 10.0 mi SSE 9.2 mph - N/A   Clear
9:35 PM 55.4 °F - 15.8 °F 21% 30.07 in 10.0 mi SSE 9.2 mph - N/A   Clear
9:55 PM 53.6 °F - 14.0 °F 21% 30.06 in 10.0 mi SSE 10.4 mph - N/A   Clear
10:15 PM 53.6 °F - 14.0 °F 21% 30.06 in 10.0 mi SSE 9.2 mph - N/A   Clear
10:35 PM 53.6 °F - 14.0 °F 21% 30.06 in 10.0 mi SSE 12.7 mph - N/A   Clear
10:55 PM 53.6 °F - 14.0 °F 21% 30.05 in 10.0 mi SSE 13.8 mph - N/A   Clear
11:15 PM 51.8 °F - 14.0 °F 22% 30.04 in 10.0 mi SSE 12.7 mph - N/A   Clear
11:35 PM 51.8 °F - 15.8 °F 24% 30.04 in 10.0 mi SSE 12.7 mph - N/A   Clear
11:55 PM 51.8 °F - 15.8 °F 24% 30.02 in 10.0 mi SSE 12.7 mph - N/A   Clear